Regional Weather Roundup
Issued by NWS

Home | Current Version | Previous Version | Graphics & Text | Print | Product List | Glossary On
Versions: 1 2 3 4 5 6 7 8 9 10 11 12 13 14 15 16 17 18 19 20 21 22 23 24 25 26 27 28 29 30 31 32 33 34 35 36 37 38 39 40 41 42 43 44 45 46 47 48 49 50
000
ASUS45 KCYS 241010
RWRWY

WYOMING REGIONAL WEATHER ROUNDUP
NATIONAL WEATHER SERVICE CHEYENNE WY
400 AM MDT FRI MAR 24 2017

NOTE:  "FAIR" INDICATES FEW OR NO CLOUDS BELOW 12,000 FEET
WITH NO SIGNIFICANT WEATHER AND/OR OBSTRUCTIONS TO VISIBILITY.

WYZ001-241100-
YELLOWSTONE NATIONAL PARK

CITY           SKY/WX    TMP DP  RH WIND       PRES   REMARKS
LK YELLOWSTONE   N/A     18  16  92 CALM      30.12R
W YELLOWSTONE  NOT AVBL

$$
WYZ002>013-054>058-071-098>099-241100-
NORTHERN WYOMING

CITY           SKY/WX    TMP DP  RH WIND       PRES   REMARKS
JACKSON        FAIR      25  23  93 NE6       30.12R WCI  18
CODY           FAIR      37  30  75 SW9       30.06S WCI  30
GREYBULL       FAIR      34  32  92 SE3       30.07R
WORLAND        FAIR      32  31  96 S7        30.06R WCI  26
SHERIDAN       FAIR      31  27  85 CALM      30.05R
BUFFALO        CLOUDY    38  28  67 CALM      30.06R
GILLETTE       FAIR      35  34  96 W13       30.04R WCI  26
HULETT         FAIR      32  32 100 S8        30.04R WCI  25
NEWCASTLE      FAIR      37  32  81 NW10      30.03R WCI  30

$$
WYZ014>020-022>026-101>103-241100-
CENTRAL WYOMING

CITY           SKY/WX    TMP DP  RH WIND       PRES   REMARKS
BIG PINEY      FAIR      30  23  75 VRB3      30.10R
PINEDALE       FAIR      27  23  86 CALM      30.11R
DUBOIS         FAIR      27  23  86 W12       30.08S WCI  16
LANDER         FAIR      34  29  82 W8        30.06S WCI  27
RIVERTON       FAIR      35  33  92 S7        30.08R WCI  29
CASPER         CLOUDY    34  33  96 W6        30.06R WCI  29
DOUGLAS        CLOUDY    38  34  85 NW8       30.05R WCI  32

$$
WYZ021-027>030-104>119-241100-
SOUTHERN WYOMING

CITY           SKY/WX    TMP DP  RH WIND       PRES   REMARKS
EVANSTON       CLOUDY    28  23  81 SW7       30.15R WCI  21
KEMMERER         N/A     30  27  86 W8        30.13R WCI  23
ROCK SPRINGS   CLOUDY    37  30  75 N3        30.10R
DIXON            N/A     36  30  79 N10G16    30.05R WCI  29
RAWLINS        MOCLDY    33  27  78 N14       30.06R WCI  23
SARATOGA       CLOUDY    34  30  86 N15G21    30.05R WCI  24
LARAMIE        LGT SNOW  31  29  92 N20G29    29.99R FOG     WCI  19
CHEYENNE       FLURRIES  33  31  92 N21G30    29.96R WCI  21
TORRINGTON     CLOUDY    41  35  79 N16       29.99R
PINE BLUFFS    CLOUDY    36  34  93 N22G28    29.93R WCI  24

$$



USA.gov is the U.S. government's official web portal to all federal, state and local government web resources and services.